Regional Weather Roundup
Issued by NWS Kansas City/Pleasant Hill, MO

Home | Current Version | Previous Version | Text Only | Print | Product List | Glossary On
Versions: 1 2 3 4 5 6 7 8 9 10 11 12 13 14 15 16 17 18 19 20 21 22 23 24 25 26 27 28 29 30 31 32 33 34 35 36 37 38 39 40 41 42 43 44 45 46 47 48 49 50
000
ASUS43 KEAX 280904
RWREAX

WEATHER ROUNDUP FOR EASTERN KANSAS AND NORTHWEST MISSOURI
NATIONAL WEATHER SERVICE KANSAS CITY/PLEASANT HILL MO
400 AM CDT SAT MAR 28 2015

KSZ040-057-103>105-MOZ028-029-037-043-281000-
...KANSAS CITY METROPOLITAN AREA...

CITY           SKY/WX    TMP DP  RH WIND       PRES   REMARKS
K.C. INTL      CLOUDY    38  24  57 E12       30.10S WCI  30
K.C. DOWNTOWN  CLOUDY    40  23  50 E8        30.10F WCI  34
LEES SUMMIT    CLOUDY    38  23  55 SE7       30.10F WCI  33
OLATHE - IXD   CLOUDY    38  25  59 E6        30.09F WCI  33
OLATHE - OJC   CLOUDY    38  23  55 SE8       30.08F WCI  32
LAWRENCE       CLOUDY    38  25  59 SE7       30.08F WCI  33

$$

MOZ001>008-011>017-020>025-030>033-038>040-044>046-053-054-281000-
...NORTHERN AND CENTRAL MISSOURI...

CITY           SKY/WX    TMP DP  RH WIND       PRES   REMARKS
ST. JOSEPH     CLOUDY    36  27  69 E9        30.12S WCI  29
MOSBY          CLOUDY    36  27  69 E6        30.12S WCI  31
WARRENSBURG    CLOUDY    36  27  69 E7        30.12S WCI  30
WHITEMAN AFB   CLOUDY    36  28  74 E7        30.11F WCI  30
CLINTON        CLOUDY    39  27  60 E5        30.12S
SEDALIA        LGT SNOW  35  30  82 S6        30.14F WCI  30
WARSAW         NOT AVBL
MARSHALL       FLURRIES  39  30  70 S5        30.15R
CHILLICOTHE      N/A     37  25  61 CALM      30.15S
MOBERLY        PTCLDY    32  19  59 E7        30.16S WCI  26
KIRKSVILLE     CLOUDY    29  19  66 E5        30.16S WCI  24

$$

MOZ041-047>049-056>058-063>065-088>090-097-281000-
...EASTERN AND SOUTHERN MISSOURI...

CITY           SKY/WX    TMP DP  RH WIND       PRES   REMARKS
ST. LOUIS INTL MOCLDY    28  18  66 E5        30.20S WCI  23
SPIRIT OF STL  PTCLDY    27  20  75 CALM      30.19S
COLUMBIA       CLOUDY    33  23  66 E8        30.14S WCI  26
JEFFERSON CITY CLOUDY    36  24  62 E7        30.16S WCI  30
HANNIBAL       MOCLDY    30  14  51 E3        30.18S
ROLLA          CLOUDY    33  22  63 SE6       30.12S WCI  28
LEBANON        CLOUDY    37  27  65 E5        30.11F WCI  34
OSAGE BEACH    CLOUDY    37  27  65 S3        30.14S
SPRINGFIELD    CLOUDY    39  23  52 SE7       30.09F WCI  34
BRANSON        CLOUDY    39  23  52 CALM      30.11F
NEVADA         CLOUDY    39  27  60 E5        30.11F
JOPLIN         MOCLDY    40  27  59 SE6       30.08F
WEST PLAINS    CLOUDY    36  20  52 SE7       30.13F WCI  30

$$

IAZ060-094-KSZ022-034>040-054-083-096-NEZ052-066-093-281000-
...KANSAS...SOUTHEAST NEBRASKA AND IOWA...

CITY           SKY/WX    TMP DP  RH WIND       PRES   REMARKS
TOPEKA         CLOUDY    40  24  53 SE8       30.08F WCI  34
MANHATTAN      MOCLDY    39  24  55 SE3       30.02F
EMPORIA        CLOUDY    39  25  57 SE8       30.04F WCI  33
CHANUTE        CLOUDY    41  29  62 S9        30.07F
WICHITA        PTCLDY    42  30  62 S10       29.99F
OMAHA          CLOUDY    34  27  75 SE10      30.11S WCI  26
LINCOLN        CLOUDY    36  22  56 E9        30.07F WCI  29
FALLS CITY     CLOUDY    36  26  67 E10       30.09R WCI  28
LAMONI         CLOUDY    34  18  52 E5        30.13R WCI  30
DES MOINES     CLOUDY    33  11  39 SE7       30.16S WCI  27

$$



USA.gov is the U.S. government's official web portal to all federal, state and local government web resources and services.